Location: Nied?wied?
(53.3665°N, 14.8184°E)
Time: 23:27:00
(UTC+00:00)

USA 305 - Pass Details

Date: 03 March 2021
Orbit: 564 x 577 km, 54.0° (Epoch: 10 April)

Event Time Altitude Azimuth Distance (km) Brightness Sun altitude
Rises 18:05:47 0° 267° (W) 2,783 8.3 -13.2°
Reaches altitude 10° 18:08:03 10° 269° (W) 1,883 7.0 -13.5°
Maximum altitude 18:12:20 82° 355° (N) 584 2.9 -14.1°
Enters shadow 18:14:51 24° 83° (E) 1,199 4.0 -14.5°
